Temperature
25 24 23 25 30 30 28 28 28 27 27 26 25 25 25 25 25 22 20 19 19 19 18 18 18 18 18 18 18 18 18 18 18 18 18 18 18 18 18 18 18 18 18 18 18 18 18 18 18
24 24 25 29 31 29 27 28 27 27 26 25 25 25 25 23 22 20 19 19 19 19 18 17 18 18 18 18 18 18 18 18 18 18 18 18 18 18 18 18 18 18 18 18 18 18 18 18 18
24 24 28 32 30 29 28 28 27 27 26 26 25 25 24 23 21 20 19 19 19 19 18 18 18 18 18 18 18 18 18 18 18 18 18 18 18 18 18 18 18 18 18 18 17 18 17 17 18
25 27 30 31 29 29 28 28 28 27 26 26 26 25 23 21 21 20 19 19 19 19 18 17 18 18 18 18 18 18 18 18 18 18 18 18 18 18 18 18 18 18 18 17 17 17 17 17 17
27 31 32 30 29 29 29 28 28 28 27 26 26 25 22 20 20 20 19 19 20 19 19 18 18 18 18 18 18 18 18 18 18 18 18 18 18 18 18 18 18 18 18 18 17 17 17 17 17
31 33 32 30 29 29 29 28 28 27 26 26 25 24 22 20 20 20 19 19 19 19 19 18 18 18 18 18 18 18 18 18 18 18 18 18 18 18 18 18 18 18 18 17 17 17 17 17 17
32 33 31 31 29 29 29 28 28 28 27 26 25 25 22 21 20 19 19 19 19 19 19 18 18 18 18 18 18 18 18 18 18 18 18 18 18 18 18 18 17 17 17 17 17 17 17 17 17
31 33 32 31 30 29 29 28 27 27 26 25 25 25 23 20 19 19 19 19 18 19 19 18 18 18 18 17 18 18 18 18 18 18 18 18 18 18 18 17 17 17 17 17 17 17 17 17 17
31 33 32 31 30 29 29 28 27 26 26 25 24 24 23 20 20 20 19 19 19 18 18 19 19 18 18 18 17 17 18 18 18 18 18 17 17 17 17 17 17 17 17 17 17 17 17 17 17
33 33 31 32 31 30 29 28 27 27 27 25 24 23 21 21 20 20 20 20 19 19 18 18 18 18 18 18 17 17 17 17 17 17 17 17 17 17 17 17 17 17 17 17 17 17 17 17 17
33 32 32 31 31 30 29 29 28 28 28 26 25 23 22 21 21 21 21 20 20 19 18 18 18 18 18 18 18 18 17 17 17 17 17 17 17 17 17 17 17 17 17 17 17 17 17 17 17
33 32 31 31 30 30 29 29 28 28 27 26 25 23 22 22 22 21 21 20 19 19 18 18 18 18 18 18 18 18 18 17 18 17 17 17 17 17 17 17 17 17 17 17 17 17 17 17 17
33 32 31 31 30 30 29 29 28 27 26 25 24 23 23 22 22 21 20 20 19 19 19 18 18 18 18 18 18 18 17 18 18 17 17 17 17 17 17 17 17 17 17 17 17 17 17 17 17
32 31 31 31 30 29 30 29 28 27 26 25 24 24 23 22 22 21 20 20 19 19 19 18 18 18 18 18 18 18 18 18 17 17 17 17 17 17 17 17 17 17 17 17 17 17 17 17 17
32 32 31 31 30 30 30 29 29 27 26 25 25 24 23 22 22 21 20 20 19 19 19 18 18 18 18 18 18 18 18 18 18 18 18 17 17 17 17 17 17 17 17 17 17 17 17 17 17
33 32 31 31 31 30 31 30 29 27 26 26 25 24 23 22 22 21 20 20 19 19 19 19 18 18 18 18 18 18 18 18 18 18 18 17 17 17 17 17 17 17 17 17 17 17 17 17 17
33 32 32 31 31 31 31 30 29 27 27 26 25 24 23 22 22 21 20 20 20 19 19 19 18 18 18 18 18 18 18 18 18 18 17 17 17 17 17 17 17 17 17 17 17 17 17 17 17
32 32 32 31 31 31 31 31 29 28 27 27 26 25 24 23 22 21 20 20 20 19 19 19 19 18 18 18 18 18 18 18 18 18 18 17 17 17 17 17 17 17 17 17 17 17 17 17 17
33 33 32 32 31 31 31 30 30 28 28 27 26 25 24 24 23 21 21 20 20 19 19 19 19 19 18 18 18 18 18 18 18 18 18 18 17 17 17 17 17 17 17 17 17 17 17 17 17
32 32 32 31 31 31 31 31 30 29 28 28 27 26 25 24 23 21 21 20 20 20 19 19 19 19 19 18 18 18 18 17 18 18 17 17 17 17 17 17 17 17 17 17 17 17 17 17 17
32 32 32 31 30 31 31 30 30 29 28 27 27 26 25 24 23 22 21 20 20 20 19 19 19 19 19 18 18 18 18 18 18 17 17 17 17 17 17 17 17 17 17 17 17 17 17 17 17
32 33 32 31 31 32 31 31 31 30 29 29 28 27 26 25 24 22 21 21 20 20 19 19 19 19 19 19 18 18 18 18 18 17 17 17 17 17 17 17 17 17 17 17 17 17 17 17 17
32 32 32 32 32 32 31 31 32 30 30 29 29 27 26 25 24 23 22 21 20 20 19 19 19 19 19 19 18 18 18 18 18 17 17 17 17 17 17 17 17 17 17 17 17 17 17 17 17
31 31 31 31 32 31 31 31 31 31 30 30 29 27 26 25 24 23 22 21 20 20 20 19 19 19 19 19 18 18 18 18 18 17 17 17 17 17 17 17 17 17 17 17 17 17 17 17 17
32 31 31 30 30 31 31 30 31 31 31 30 29 27 26 25 24 23 22 21 21 20 20 19 19 19 19 18 18 18 18 18 17 17 17 17 17 17 17 17 17 17 17 17 17 17 17 17 17
32 32 31 30 30 31 30 31 32 31 30 29 28 27 26 25 24 23 22 21 21 20 20 19 19 19 19 18 18 18 18 17 17 17 17 17 17 17 17 17 17 17 17 17 17 17 16 17 17
31 32 33 32 31 31 31 31 31 30 29 29 28 27 26 25 24 24 23 22 21 20 20 20 19 19 18 18 18 18 18 17 17 17 17 17 17 17 17 17 17 17 17 17 17 17 16 16 16
32 32 32 31 30 30 30 31 31 30 30 29 29 27 26 25 24 24 23 22 21 21 20 19 19 19 18 18 18 18 17 17 17 17 17 17 17 17 17 17 17 17 17 17 17 16 16 16 16
30 31 31 31 31 30 30 31 32 31 30 30 29 27 26 25 25 24 23 22 21 21 20 20 19 19 18 18 18 18 17 17 17 17 17 17 17 17 17 17 17 17 17 16 16 16 16 16 16
31 31 31 30 30 30 31 31 31 31 30 29 29 27 26 25 25 24 23 22 21 21 20 19 19 19 18 18 18 18 17 17 17 17 17 17 17 17 17 16 16 16 16 16 16 16 15 15 15
Wind_Speed
13 10 6 4 2 9 15 12 10 9 8 10 10 8 10 11 9 9 7 8 8 9 11 11 10 11 11 11 11 11 11 11 11 11 11 11 11 12 13 13 13 13 13 14 14 14 14 14 14
9 6 4 0 7 12 14 12 12 12 9 8 9 10 12 11 10 9 8 8 8 9 10 11 11 10 11 10 10 11 11 11 11 11 11 11 12 12 13 13 13 13 14 14 14 14 13 13 13
7 5 2 6 13 14 13 12 12 10 8 7 8 9 8 8 8 7 9 9 9 10 11 12 10 10 10 10 10 10 10 10 10 10 10 11 12 12 12 13 13 13 13 14 13 13 13 12 12
5 3 2 10 16 15 12 10 9 9 10 8 9 10 8 8 6 9 11 9 9 9 10 13 9 10 9 10 10 10 10 11 10 10 11 11 12 12 12 13 13 13 12 13 13 12 12 12 11
3 1 9 14 16 13 11 9 7 9 9 9 10 12 10 8 10 12 10 9 9 9 10 12 9 9 9 9 10 10 10 10 10 10 11 11 12 12 12 12 12 12 12 12 12 12 11 11 10
1 3 10 14 14 11 10 9 9 12 12 11 11 12 8 8 10 10 9 8 8 8 9 12 10 9 9 9 9 10 10 10 10 10 10 11 11 12 12 12 12 12 11 11 11 11 10 10 10
3 8 13 14 13 12 10 8 9 10 10 9 7 10 9 9 9 9 8 8 7 7 7 8 10 11 10 9 8 9 10 10 9 9 10 10 11 11 11 11 10 10 10 10 10 10 10 9 9
2 6 12 12 12 12 9 9 8 8 9 7 4 7 9 11 10 9 8 8 6 5 6 7 7 7 8 10 9 9 9 9 9 9 9 9 11 11 11 11 9 10 10 10 9 9 9 9 9
0 7 12 12 11 10 9 9 8 7 9 7 7 9 12 14 11 10 8 7 6 5 4 4 6 6 6 7 9 9 9 8 8 9 7 6 7 9 9 11 9 9 9 9 8 8 8 8 9
3 10 13 10 10 10 9 9 8 7 9 9 10 11 13 13 11 9 8 7 7 6 5 4 4 5 5 5 7 5 6 7 5 6 6 6 6 6 8 11 9 9 9 9 7 6 8 7 7
8 11 10 10 10 10 10 9 7 7 8 8 10 12 12 11 9 8 7 6 6 6 5 5 4 3 4 4 4 4 4 5 5 6 5 5 5 6 7 7 8 8 8 7 8 7 4 4 3
9 10 8 9 10 9 9 8 8 8 9 8 9 11 11 10 8 7 6 6 6 5 5 5 4 4 3 2 3 3 3 3 4 5 3 4 3 3 5 4 5 5 5 4 4 3 3 2 3
8 9 9 9 9 9 9 8 8 9 9 9 10 10 10 9 7 6 5 5 5 5 5 4 4 4 3 3 2 2 2 2 3 3 3 2 3 3 3 3 2 3 4 4 3 3 3 3 3
7 9 9 9 9 8 8 8 7 8 9 9 9 8 8 7 7 6 6 5 4 4 4 4 4 4 4 4 3 2 2 2 2 2 3 2 2 2 2 3 2 2 2 2 2 3 2 3 2
8 9 9 7 6 6 6 7 6 9 9 9 8 7 6 6 6 5 5 5 5 4 4 4 5 5 5 4 3 2 2 2 2 2 2 3 2 2 2 2 2 2 2 2 2 2 2 3 3
6 6 5 6 4 4 4 5 7 9 9 8 7 7 6 5 5 5 5 5 4 5 5 5 4 5 5 4 3 2 1 2 2 2 3 3 2 3 3 2 2 2 3 3 2 2 2 2 2
6 4 4 6 5 4 4 3 8 8 8 7 7 6 6 5 4 4 4 5 4 5 5 5 5 4 4 4 3 3 2 2 2 3 3 3 4 4 4 2 2 3 3 3 3 2 2 2 2
4 3 3 4 5 5 4 3 7 7 7 7 6 6 5 5 4 4 5 5 4 5 5 5 5 4 4 3 3 3 3 3 3 3 3 3 4 4 4 3 3 4 3 3 2 2 2 3 3
3 4 3 3 3 4 4 3 5 7 8 7 7 6 6 5 5 5 5 5 5 5 5 5 5 4 4 3 3 3 3 3 3 3 3 4 4 4 4 4 3 4 3 4 3 3 3 4 3
6 6 5 5 3 3 3 3 4 7 8 7 7 7 6 6 6 6 6 6 6 6 5 5 5 5 5 3 2 2 2 2 2 2 2 4 4 4 5 4 4 4 4 4 5 4 4 4 4
8 7 5 5 5 5 4 5 6 7 7 7 7 7 7 7 7 7 8 7 7 7 6 5 4 4 4 3 3 2 2 2 2 2 3 3 4 5 5 4 5 4 5 4 5 5 6 5 4
8 5 5 6 6 3 4 3 4 7 7 8 8 8 8 8 7 8 8 8 8 7 6 5 5 4 4 4 3 3 2 2 2 2 2 2 3 4 5 5 5 5 5 5 6 5 5 5 5
4 4 5 6 6 5 4 6 1 6 6 7 8 8 8 8 8 8 9 8 8 7 6 6 5 5 4 4 4 3 3 2 1 1 2 3 3 4 5 5 5 5 5 5 6 4 5 5 6
8 7 5 7 8 7 4 6 3 3 3 5 7 8 8 8 8 9 8 8 7 7 7 6 6 5 5 4 4 3 3 2 2 2 2 3 2 3 4 5 4 5 5 5 5 5 6 5 6
9 9 7 7 7 5 2 5 3 2 2 3 6 9 9 9 9 9 9 9 8 8 7 6 6 5 4 4 4 4 3 3 3 2 2 3 2 2 2 3 3 4 4 5 5 5 5 5 6
11 11 9 7 6 4 5 5 1 3 3 3 6 9 9 9 9 9 9 9 8 8 7 6 6 5 4 4 4 3 3 3 2 2 2 2 3 3 2 2 3 3 4 4 4 4 5 4 5
10 11 9 9 8 7 4 3 4 4 5 6 8 9 10 9 10 10 10 9 8 8 7 6 6 5 4 4 3 3 3 2 2 2 2 2 2 2 2 2 2 2 3 3 4 3 4 4 4
7 8 7 9 8 8 6 6 4 5 7 8 9 10 10 10 10 10 10 9 9 8 7 6 5 5 4 3 3 2 2 2 2 2 1 2 1 1 1 2 2 2 1 2 3 3 3 3 3
8 9 8 8 8 9 7 3 1 4 6 9 10 10 11 10 10 10 9 9 9 8 8 7 6 5 4 3 3 2 2 2 2 1 0 1 1 1 1 1 1 1 1 1 1 2 2 3 3
10 11 11 10 8 8 9 3 5 2 4 6 9 10 10 10 10 10 10 10 9 8 8 7 6 5 4 4 3 3 2 2 2 1 1 0 0 0 1 1 1 1 1 1 1 2 2 2 3
Wind_Direction
168 175 202 227 122 73 66 65 68 71 66 62 60 59 61 49 48 82 99 103 107 108 107 109 94 93 91 91 92 94 93 93 94 95 97 97 100 110 114 115 115 115 120 121 118 117 117 117 115
168 181 217 251 65 73 67 65 68 69 84 87 74 73 74 67 66 94 111 113 118 108 108 101 100 97 96 95 95 96 96 94 92 94 95 96 99 107 113 115 116 115 116 119 120 119 119 119 118
175 218 306 60 59 63 70 70 79 83 83 85 83 66 63 72 82 99 112 124 118 105 105 103 107 104 101 98 96 96 96 95 93 94 96 97 99 104 109 112 113 115 117 119 121 121 121 121 120
205 204 87 69 68 65 72 79 91 95 83 81 93 85 75 61 82 108 122 126 115 113 112 107 111 108 103 101 98 96 96 95 93 94 95 96 100 103 105 108 111 113 116 118 122 124 123 122 120
237 76 81 74 71 71 72 74 78 83 85 89 93 96 87 75 97 114 123 120 115 111 106 110 109 108 106 103 102 100 98 95 94 94 96 96 98 101 103 106 109 112 113 114 119 120 122 123 122
221 67 72 74 74 74 75 80 84 86 95 95 98 98 91 110 114 119 121 120 112 110 111 114 117 109 107 105 106 103 98 94 92 94 98 99 100 100 101 104 107 112 116 118 120 122 124 124 126
46 65 73 76 80 77 73 76 80 91 94 89 100 102 115 123 122 124 121 119 114 114 116 120 130 128 124 111 103 102 100 98 96 96 98 100 101 101 102 105 109 116 119 122 123 124 127 125 125
24 81 79 76 76 79 87 85 79 79 87 95 93 106 127 138 137 132 129 124 117 115 113 122 118 117 126 124 117 111 106 104 102 99 101 107 114 111 113 116 113 119 121 122 125 126 127 129 131
101 76 72 72 76 92 101 98 89 89 100 92 80 91 119 136 141 139 135 133 130 125 117 114 115 119 117 116 125 131 126 121 130 118 121 138 121 117 123 102 113 118 119 119 122 129 134 145 147
63 71 71 72 83 99 103 99 107 112 104 105 105 106 126 141 149 148 144 143 139 133 128 122 120 125 118 115 122 130 128 125 122 114 122 117 108 112 112 114 115 121 125 128 128 145 163 181 153
69 75 85 89 95 104 108 104 106 106 98 106 123 134 144 149 153 150 145 144 139 140 137 138 133 126 121 122 123 119 116 122 124 113 115 112 121 124 122 128 134 134 145 141 143 168 156 145 137
84 82 91 100 105 108 106 106 101 89 87 105 123 139 149 155 154 152 148 145 148 148 149 148 146 144 136 127 126 146 135 134 126 126 139 128 123 122 115 125 132 145 139 137 145 144 141 147 158
92 94 99 110 114 110 112 106 102 103 107 116 127 141 150 154 153 152 146 149 156 161 162 162 167 159 160 162 193 148 139 135 130 136 139 147 144 129 128 129 142 156 143 156 165 159 157 171 173
102 110 113 117 116 122 118 113 114 117 128 131 138 145 151 157 157 155 162 168 172 175 175 174 183 181 185 184 184 169 161 167 168 161 150 186 162 146 155 155 166 161 164 161 173 156 174 186 176
130 126 124 127 132 139 139 122 118 133 144 144 145 145 146 156 166 172 175 178 179 181 181 186 193 189 193 192 189 179 178 165 184 179 183 202 191 173 197 180 191 178 175 177 196 178 189 196 193
168 170 142 137 157 169 212 107 127 147 158 155 152 153 157 163 173 176 178 182 179 180 179 192 198 179 181 185 197 189 186 170 195 203 201 209 210 209 220 215 204 196 209 204 190 206 194 200 221
199 196 145 144 176 182 212 110 131 158 168 167 167 168 169 168 177 177 181 178 178 180 182 187 193 189 190 190 206 209 202 220 220 219 221 216 226 222 222 225 216 214 212 219 221 184 212 207 224
191 188 171 162 169 196 204 158 143 167 180 178 176 177 176 178 179 174 173 167 167 174 181 184 185 187 193 192 204 225 223 220 221 221 210 222 228 227 232 222 214 234 220 220 232 228 235 242 239
208 205 179 139 151 203 215 203 172 178 191 190 189 187 186 184 170 163 162 162 162 168 174 179 182 173 186 191 207 209 217 227 225 225 213 220 231 227 233 244 207 235 232 234 229 236 229 232 228
207 206 176 152 158 215 214 216 189 190 201 199 194 191 191 185 172 166 166 168 169 170 174 175 177 174 187 183 202 225 261 255 244 247 224 235 238 241 230 238 236 231 238 233 239 237 249 242 222
210 219 199 175 170 201 232 203 189 187 198 199 201 195 191 189 182 173 172 173 172 173 177 178 174 172 185 184 193 191 207 240 237 239 234 245 251 244 251 239 243 239 240 235 237 237 241 250 240
207 209 206 193 212 205 249 273 171 183 194 199 199 194 190 185 184 177 174 176 176 174 174 173 170 174 180 191 203 213 232 256 277 266 250 250 251 249 243 242 240 241 243 240 242 237 246 248 253
197 169 197 213 238 256 234 278 171 171 199 199 194 191 188 183 181 176 174 173 172 172 171 168 169 171 178 196 199 219 240 254 267 261 254 254 240 245 248 244 244 241 244 243 246 250 249 249 254
146 154 175 221 242 250 256 272 268 176 200 186 181 180 178 175 173 168 167 166 169 169 170 169 169 177 183 192 201 221 242 256 266 277 284 266 246 244 244 241 243 243 245 243 243 246 244 252 258
194 206 215 223 229 241 198 255 278 87 151 172 170 168 167 169 169 167 167 169 170 171 173 171 174 182 185 192 204 221 236 238 240 261 267 281 276 260 259 258 243 246 246 247 247 242 252 252 253
211 229 243 255 255 222 184 249 251 125 145 157 159 157 160 166 169 168 168 168 169 171 172 173 177 183 186 194 207 223 232 238 247 259 286 277 287 291 301 273 255 252 252 252 246 252 249 250 253
208 231 256 258 265 269 229 232 214 173 177 168 159 158 161 164 165 166 165 165 166 167 170 172 171 178 185 193 199 209 217 242 260 260 267 274 285 281 270 267 274 274 268 265 257 259 259 253 252
246 224 229 247 254 257 240 238 249 193 189 177 170 167 163 163 164 164 163 163 163 163 163 165 167 167 174 188 203 181 190 205 229 257 287 306 299 303 293 281 286 289 289 272 259 257 261 260 261
194 212 230 244 256 262 258 240 181 206 195 184 177 171 168 168 166 163 161 159 160 159 159 161 162 162 169 176 178 186 182 182 183 201 274 332 323 325 316 296 294 307 312 301 277 273 266 269 276
226 225 221 235 236 249 269 262 94 143 173 184 178 170 170 169 162 159 159 158 160 160 160 161 164 162 163 162 164 171 176 175 177 164 155 132 20 333 28 350 330 335 8 352 328 304 303 295 296
Height
1494 1494 1495 1496 1490 1493 1503 1504 1501 1504 1508 1512 1513 1512 1513 1516 1518 1530 1534 1532 1533 1534 1533 1532 1532 1532 1532 1533 1533 1533 1533 1533 1533 1533 1532 1531 1530 1529 1531 1534 1536 1537 1538 1540 1542 1543 1544 1546 1547
1496 1496 1497 1493 1489 1503 1510 1505 1506 1509 1513 1514 1515 1516 1517 1522 1527 1531 1533 1534 1535 1536 1536 1535 1534 1534 1535 1535 1535 1535 1535 1535 1535 1535 1534 1533 1533 1533 1534 1536 1538 1540 1540 1542 1544 1545 1547 1548 1549
1497 1497 1497 1489 1495 1505 1511 1507 1510 1513 1515 1515 1517 1519 1522 1528 1531 1533 1535 1536 1537 1538 1538 1536 1536 1537 1537 1537 1537 1538 1538 1538 1537 1537 1537 1537 1537 1537 1538 1540 1541 1542 1543 1545 1546 1547 1549 1550 1551
1499 1499 1495 1493 1503 1505 1506 1509 1511 1513 1516 1518 1518 1522 1528 1532 1534 1536 1536 1538 1539 1540 1541 1538 1538 1539 1539 1540 1540 1540 1540 1540 1540 1540 1540 1540 1540 1540 1541 1542 1544 1545 1546 1547 1548 1549 1551 1552 1553
1500 1495 1492 1499 1505 1507 1508 1511 1513 1513 1517 1519 1520 1525 1532 1536 1536 1537 1538 1540 1541 1542 1543 1541 1540 1541 1541 1542 1542 1542 1542 1542 1542 1542 1542 1542 1543 1543 1544 1545 1546 1547 1548 1549 1550 1551 1552 1554 1554
1499 1491 1496 1506 1509 1509 1511 1513 1514 1516 1520 1522 1524 1527 1535 1538 1538 1539 1540 1541 1543 1543 1544 1543 1542 1543 1543 1544 1544 1544 1544 1544 1544 1544 1545 1545 1545 1545 1546 1547 1548 1549 1550 1551 1552 1553 1554 1555 1556
1498 1493 1499 1503 1509 1511 1514 1515 1516 1518 1521 1525 1526 1528 1536 1539 1540 1541 1542 1543 1544 1544 1545 1545 1546 1545 1545 1545 1545 1546 1546 1546 1546 1546 1547 1547 1547 1548 1548 1549 1550 1551 1552 1553 1554 1555 1556 1557 1558
1499 1494 1498 1503 1508 1514 1516 1518 1520 1520 1524 1528 1529 1529 1535 1539 1540 1541 1543 1544 1545 1545 1546 1547 1548 1548 1548 1548 1547 1548 1548 1548 1548 1548 1548 1549 1549 1550 1550 1552 1552 1553 1554 1555 1555 1557 1557 1558 1559
1501 1496 1503 1505 1509 1514 1516 1519 1523 1525 1527 1529 1531 1532 1536 1539 1541 1542 1544 1545 1546 1546 1547 1548 1549 1549 1550 1550 1549 1550 1550 1550 1550 1550 1550 1551 1552 1553 1553 1554 1554 1555 1555 1556 1557 1558 1559 1559 1560
1499 1500 1506 1507 1509 1512 1517 1520 1523 1525 1527 1530 1533 1536 1538 1540 1542 1543 1544 1546 1547 1548 1548 1549 1550 1550 1551 1551 1551 1552 1553 1552 1552 1552 1553 1553 1553 1555 1555 1555 1555 1556 1557 1558 1558 1559 1560 1561 1562
1501 1503 1507 1510 1512 1515 1518 1521 1523 1524 1526 1530 1533 1537 1539 1541 1542 1544 1545 1546 1547 1548 1549 1549 1550 1550 1551 1552 1553 1553 1553 1553 1554 1553 1554 1554 1555 1556 1557 1557 1557 1558 1559 1560 1560 1561 1562 1563 1563
1505 1508 1510 1512 1515 1517 1519 1522 1524 1526 1529 1533 1535 1537 1540 1541 1543 1544 1546 1547 1548 1548 1549 1550 1550 1550 1551 1552 1553 1553 1554 1554 1555 1555 1555 1556 1557 1557 1558 1558 1559 1560 1560 1560 1561 1562 1562 1562 1563
1507 1510 1513 1515 1517 1519 1521 1523 1526 1529 1533 1535 1536 1538 1540 1542 1543 1545 1546 1547 1548 1548 1549 1550 1550 1550 1550 1551 1552 1554 1554 1555 1556 1556 1556 1557 1558 1558 1559 1559 1559 1560 1561 1561 1561 1562 1562 1562 1563
1510 1512 1514 1516 1518 1520 1521 1524 1527 1531 1534 1536 1537 1539 1540 1542 1544 1545 1546 1547 1548 1548 1549 1549 1550 1550 1550 1551 1552 1553 1554 1554 1556 1556 1557 1557 1558 1559 1559 1559 1559 1560 1561 1562 1562 1562 1562 1563 1563
1512 1512 1514 1516 1518 1520 1521 1524 1526 1531 1534 1536 1538 1539 1541 1542 1544 1545 1545 1546 1547 1548 1548 1549 1549 1550 1550 1551 1552 1553 1554 1555 1555 1556 1556 1557 1558 1558 1559 1560 1560 1560 1561 1561 1561 1562 1562 1563 1563
1509 1509 1514 1517 1517 1520 1520 1524 1526 1531 1533 1535 1537 1539 1541 1542 1543 1544 1545 1546 1547 1547 1548 1548 1550 1550 1550 1551 1552 1553 1554 1554 1555 1556 1556 1557 1557 1558 1558 1559 1560 1560 1560 1561 1561 1562 1562 1562 1563
1506 1510 1513 1516 1516 1517 1517 1520 1525 1529 1532 1534 1536 1538 1540 1541 1543 1544 1544 1545 1546 1546 1547 1548 1549 1550 1550 1551 1551 1552 1553 1553 1554 1555 1556 1556 1557 1557 1558 1558 1559 1559 1560 1560 1561 1561 1561 1562 1562
1510 1509 1512 1514 1514 1515 1516 1518 1523 1528 1530 1532 1535 1537 1539 1540 1542 1543 1544 1545 1545 1546 1547 1548 1548 1549 1550 1550 1551 1551 1552 1552 1553 1554 1554 1555 1555 1556 1557 1557 1557 1558 1559 1559 1559 1559 1560 1560 1560
1503 1507 1512 1512 1512 1514 1516 1517 1520 1525 1528 1530 1533 1535 1537 1539 1541 1542 1543 1544 1545 1545 1546 1547 1548 1548 1549 1550 1551 1551 1551 1552 1552 1553 1553 1554 1554 1555 1555 1556 1556 1556 1557 1557 1558 1558 1559 1559 1559
1505 1509 1511 1513 1514 1514 1515 1516 1517 1522 1525 1527 1530 1533 1535 1537 1540 1541 1542 1543 1544 1545 1546 1547 1547 1548 1549 1549 1550 1550 1551 1551 1552 1552 1552 1552 1553 1553 1554 1554 1555 1555 1555 1556 1556 1556 1557 1557 1557
1506 1507 1509 1513 1515 1513 1514 1517 1517 1519 1523 1526 1528 1530 1533 1535 1537 1539 1541 1542 1544 1544 1545 1547 1547 1547 1548 1549 1549 1550 1550 1550 1551 1551 1551 1551 1551 1551 1552 1552 1553 1553 1554 1554 1554 1554 1554 1555 1555
1508 1503 1506 1511 1514 1514 1516 1520 1514 1513 1518 1521 1525 1527 1530 1533 1536 1538 1539 1541 1543 1544 1545 1546 1546 1547 1547 1548 1549 1549 1550 1550 1550 1550 1549 1549 1549 1550 1550 1550 1550 1550 1551 1551 1552 1552 1552 1553 1553
1503 1504 1506 1509 1511 1513 1513 1518 1511 1511 1515 1516 1520 1524 1527 1531 1534 1536 1538 1540 1542 1543 1544 1545 1545 1546 1546 1547 1547 1547 1548 1548 1548 1548 1548 1547 1548 1548 1548 1548 1548 1548 1549 1549 1549 1550 1550 1550 1550
1506 1508 1510 1509 1508 1523 1516 1519 1516 1506 1510 1511 1516 1521 1525 1529 1532 1534 1537 1539 1540 1542 1543 1544 1544 1545 1545 1545 1546 1546 1546 1546 1546 1546 1546 1546 1546 1546 1546 1546 1546 1546 1546 1546 1547 1547 1547 1547 1547
1505 1511 1521 1524 1524 1522 1512 1518 1513 1504 1507 1510 1514 1519 1523 1527 1530 1533 1535 1537 1539 1541 1542 1543 1543 1544 1544 1545 1545 1545 1545 1545 1545 1545 1545 1544 1545 1545 1544 1544 1544 1544 1544 1544 1544 1544 1544 1544 1544
1503 1504 1520 1530 1526 1515 1516 1516 1505 1504 1509 1511 1514 1518 1522 1525 1529 1531 1534 1536 1538 1539 1541 1542 1542 1543 1543 1543 1543 1543 1544 1544 1544 1543 1544 1543 1543 1543 1542 1542 1542 1542 1542 1542 1542 1542 1542 1541 1541
1503 1503 1496 1507 1513 1517 1511 1507 1502 1504 1507 1510 1513 1517 1520 1524 1527 1530 1532 1535 1536 1538 1539 1540 1540 1541 1542 1543 1542 1542 1542 1542 1542 1542 1542 1542 1541 1541 1540 1540 1540 1540 1539 1539 1539 1540 1539 1539 1538
1497 1496 1503 1508 1524 1526 1516 1512 1507 1503 1505 1507 1511 1515 1519 1522 1526 1529 1531 1533 1535 1537 1538 1539 1540 1540 1541 1541 1542 1542 1541 1541 1541 1541 1541 1540 1540 1539 1539 1539 1539 1538 1538 1538 1538 1538 1537 1537 1536
1503 1503 1502 1502 1506 1519 1522 1512 1494 1498 1501 1504 1508 1513 1517 1520 1524 1527 1529 1532 1534 1536 1537 1538 1538 1539 1539 1540 1540 1540 1540 1540 1540 1540 1539 1539 1538 1538 1537 1537 1537 1537 1537 1536 1536 1536 1536 1535 1535
1493 1495 1500 1510 1513 1510 1511 1508 1494 1497 1500 1504 1507 1512 1516 1519 1522 1525 1528 1530 1532 1534 1536 1537 1537 1538 1538 1539 1539 1539 1539 1539 1539 1538 1538 1537 1537 1537 1536 1536 1536 1536 1535 1535 1535 1534 1534 1533 1533